Wind_Speed
23 23 23 23 23 23 23 23 23 22 22 22 22 22 21 21 21 21 21 21 21 21 21 20 20 20 20 20 20 19 18 18 18 17 16 16 15 14 14 14 13 12 12 13
23 24 24 24 24 24 24 24 24 24 24 23 23 23 22 21 21 22 22 22 22 21 21 21 21 21 21 21 22 21 20 19 19 19 18 18 16 15 15 14 13 13 12 13
24 24 25 25 24 25 25 25 25 25 24 24 24 24 23 22 22 23 23 23 23 22 22 22 22 22 22 22 22 21 21 21 20 20 20 19 18 17 16 15 14 13 13 13
25 25 26 25 25 25 26 25 25 25 25 25 25 25 25 24 23 24 24 24 24 23 23 23 22 23 23 23 22 22 21 21 21 20 20 20 19 18 17 16 15 14 14 14
26 27 26 25 25 25 25 25 25 25 25 25 25 25 25 25 24 24 24 24 24 24 24 24 23 23 24 23 23 22 22 21 21 22 21 21 21 20 19 17 16 15 15 15
27 27 27 26 25 25 25 25 24 25 25 24 25 25 25 25 24 24 23 23 23 23 23 24 24 23 24 24 23 23 23 22 21 22 22 22 22 21 20 19 18 17 16 16
26 27 27 27 26 25 25 25 25 25 25 24 25 26 25 25 24 24 24 24 23 23 22 23 23 23 23 23 24 23 23 23 22 22 24 23 23 22 21 20 19 18 18 18
26 26 26 26 26 26 26 26 25 25 25 25 26 26 26 26 25 24 25 25 24 23 22 23 23 23 22 23 24 24 24 23 23 22 23 24 24 23 22 22 21 20 20 19
25 26 26 26 26 26 26 26 26 26 25 26 26 26 26 26 26 26 26 26 25 24 23 23 23 23 23 22 22 23 23 23 24 24 24 25 25 24 24 23 22 22 21 21
25 25 25 25 26 26 26 27 27 27 26 26 26 26 26 26 25 25 25 25 25 24 24 23 23 24 23 23 23 23 23 24 24 24 24 25 25 25 24 24 24 23 23 22
24 24 25 24 25 25 26 26 27 27 27 26 26 25 25 25 25 25 25 25 25 24 23 23 23 23 23 23 24 24 23 24 25 26 25 25 25 26 25 26 26 24 24 23
25 24 25 25 25 25 25 25 26 26 25 25 26 26 26 25 25 25 25 24 24 23 23 23 22 22 22 23 23 24 24 24 25 27 26 26 26 27 27 27 26 26 25 25
24 24 25 24 24 25 25 25 26 26 26 26 26 26 26 26 25 25 25 24 24 25 24 24 23 22 23 23 23 24 25 25 25 26 27 27 27 27 28 28 28 27 27 26
23 23 23 24 24 24 25 25 25 25 25 26 26 26 26 25 25 26 26 26 26 26 26 27 26 25 25 25 25 24 24 25 26 26 27 28 28 28 28 29 29 29 28 28
22 23 23 23 24 24 24 24 25 25 25 26 26 26 26 25 25 26 27 27 28 28 28 28 28 28 27 27 27 26 25 25 27 27 28 29 29 30 30 30 30 30 30 29
22 23 23 23 23 23 23 24 25 25 26 26 27 27 26 26 26 26 26 27 27 28 28 28 29 28 29 29 29 28 27 27 28 28 29 30 30 31 31 31 31 31 30 30
22 23 23 23 23 23 24 24 25 25 25 26 26 26 26 27 27 26 27 28 28 28 28 28 29 29 29 29 30 29 29 29 29 29 30 31 31 31 31 32 32 31 31 31
23 23 23 23 24 24 24 25 25 25 25 26 26 26 27 27 26 26 26 27 28 28 28 28 29 29 29 30 30 31 30 30 30 30 30 30 31 32 32 33 34 33 32 32
22 23 23 24 23 24 24 24 25 25 25 25 25 26 26 26 25 25 25 25 26 27 27 28 30 31 31 31 32 31 31 31 31 30 30 30 30 32 33 34 34 34 34 34
23 23 23 23 23 23 23 24 25 25 24 25 25 25 24 24 23 23 23 24 25 26 26 27 28 28 29 29 30 31 31 31 31 31 31 31 31 32 33 35 36 36 35 34
24 23 24 24 24 23 24 24 24 24 24 24 24 23 23 22 22 23 24 25 25 25 26 27 28 28 29 30 30 30 30 30 30 31 31 31 32 33 33 34 35 36 36 36
24 23 23 24 24 23 23 24 24 24 24 23 23 23 23 22 22 23 23 24 24 25 26 27 28 28 29 30 31 31 30 30 31 31 31 32 32 33 33 34 34 35 36 36
23 23 23 24 23 23 23 23 23 23 22 22 22 22 21 21 22 22 22 23 24 25 26 27 27 28 29 29 29 29 30 30 31 31 31 31 31 32 33 34 35 36 37 37
24 24 24 24 23 22 22 22 23 23 22 21 21 22 22 22 22 22 22 23 25 25 26 26 26 27 27 27 28 28 29 29 29 29 29 30 30 31 32 33 34 35 35 36
25 25 24 24 23 22 22 22 23 23 22 21 22 22 22 22 22 23 22 22 23 24 25 26 25 24 24 25 26 27 27 28 28 29 29 29 30 31 32 32 33 34 34 35
25 25 25 25 24 24 24 23 23 23 23 22 22 23 23 23 22 22 21 21 21 22 23 24 25 24 24 24 24 25 25 26 28 28 29 29 29 30 31 31 32 32 32 32
25 25 25 24 24 25 25 25 24 23 22 21 21 21 22 21 20 20 20 20 20 21 21 22 23 23 23 23 23 24 25 25 26 27 28 28 28 29 29 30 31 31 32 32
Wind_Direction
260 261 262 263 265 267 268 269 270 270 271 271 271 270 270 269 269 269 269 268 267 267 266 267 267 266 264 261 257 255 254 253 253 252 251 250 252 252 252 251 250 248 247 245
262 263 264 265 266 269 270 271 272 272 272 272 271 271 271 270 270 269 268 268 268 267 265 265 265 265 264 261 257 253 251 249 250 250 248 247 249 250 250 248 248 246 245 244
265 265 266 266 267 268 269 270 272 272 272 271 269 268 270 271 271 270 268 267 267 268 267 264 263 263 261 259 255 252 249 248 247 246 245 244 244 245 246 247 247 244 245 245
267 266 267 270 270 270 271 271 272 272 271 271 270 268 270 271 271 269 267 266 266 266 265 264 263 261 258 257 254 251 250 248 245 243 242 241 241 243 244 246 246 245 245 246
268 268 269 270 271 271 272 272 272 273 272 272 271 269 269 270 271 270 268 266 265 265 265 264 264 260 256 254 252 251 250 249 245 242 241 239 240 242 244 246 245 245 245 246
269 270 271 272 272 272 272 272 272 273 275 274 272 269 270 268 269 267 266 266 265 264 266 266 263 260 255 251 249 248 249 248 245 241 240 240 240 241 244 245 244 244 245 247
268 270 272 273 273 272 272 273 274 274 274 275 272 271 271 268 268 266 266 265 266 265 266 265 263 259 255 250 247 246 247 245 244 241 239 240 240 240 243 243 243 243 245 247
269 271 273 273 273 273 273 273 274 275 274 274 273 271 270 268 268 266 266 265 265 264 265 264 262 258 253 247 245 245 245 244 242 239 238 238 240 242 241 241 242 243 244 245
269 272 274 273 273 274 274 274 274 274 274 274 272 270 269 268 267 265 264 264 264 264 263 262 259 255 251 248 245 244 244 243 242 241 239 238 240 241 241 241 241 244 245 245
271 273 274 274 274 274 275 275 275 274 274 274 272 271 271 269 268 267 266 265 264 262 262 261 257 253 249 246 245 244 244 243 241 242 241 239 239 239 240 241 241 244 245 245
271 273 275 275 275 275 274 275 274 274 273 272 271 271 270 269 267 268 266 266 264 261 258 257 255 250 248 246 246 245 243 243 242 241 241 242 240 239 240 241 242 243 244 246
273 275 276 276 275 274 274 276 275 274 273 271 271 270 270 268 266 266 265 265 264 261 256 254 252 249 249 247 247 248 246 245 243 240 241 241 240 240 240 242 243 244 246 247
275 276 277 277 277 275 276 277 277 274 273 272 272 271 270 267 265 265 265 264 260 258 255 251 249 248 249 249 248 249 248 245 246 243 241 240 240 241 242 243 244 245 247 249
277 277 276 277 277 278 278 277 277 275 274 274 273 272 271 267 265 264 263 261 256 254 252 250 248 248 249 248 250 251 249 246 246 246 243 243 242 243 244 245 244 245 247 250
277 277 277 278 280 281 280 278 276 276 276 275 274 272 269 266 265 264 263 261 257 254 252 250 249 249 247 247 249 251 251 249 247 246 245 245 246 246 246 246 245 246 247 249
277 279 280 281 282 282 281 280 279 277 276 275 274 271 268 266 265 263 262 260 258 255 253 253 252 249 248 247 248 251 251 251 250 248 248 248 247 247 247 246 246 247 248 248
279 281 281 282 282 282 282 282 282 279 278 276 275 272 270 269 268 264 262 259 258 256 255 254 252 250 250 249 248 249 251 252 251 250 250 249 249 248 246 245 244 245 246 247
280 282 282 281 282 282 283 281 282 281 280 280 277 274 273 272 269 265 262 258 255 254 255 254 252 252 252 251 249 250 251 252 251 250 250 250 250 249 247 246 245 245 246 247
280 282 284 285 284 284 285 284 283 282 281 281 279 277 276 273 270 266 262 259 256 254 254 254 254 254 253 252 251 251 252 252 252 251 250 250 250 250 249 248 246 246 247 248
282 284 286 285 285 286 286 285 284 284 282 281 281 279 277 273 269 265 261 260 260 258 257 257 257 257 256 254 252 251 252 252 253 252 251 252 252 251 250 249 247 246 247 247
282 284 285 284 283 285 286 286 286 285 284 283 281 279 277 274 269 265 263 262 260 258 258 259 259 260 259 257 255 254 253 252 253 253 253 252 253 252 250 250 248 246 246 247
282 285 286 284 283 285 286 287 286 285 284 282 280 279 278 275 272 268 266 265 262 261 260 260 260 260 260 259 257 255 254 253 254 254 254 254 253 252 250 248 248 248 246 246
283 284 287 287 287 287 287 288 287 286 284 283 280 280 279 277 276 272 268 266 264 263 262 262 262 261 260 258 256 255 255 255 255 254 254 254 253 252 250 248 249 250 249 248
283 283 285 287 287 286 287 288 288 288 286 283 280 280 280 280 278 274 272 268 266 264 264 264 263 261 258 257 256 255 254 255 255 254 254 254 253 252 251 250 250 250 250 249
283 283 284 285 285 286 286 289 289 286 285 282 280 280 280 280 280 277 275 273 269 266 264 263 262 261 261 260 258 256 255 255 254 253 253 254 254 254 252 251 251 251 252 251
282 282 284 285 284 285 286 287 287 286 286 285 283 281 280 280 279 275 274 274 272 269 266 264 263 262 263 262 259 256 255 255 254 254 254 256 255 253 252 252 253 251 251 252
280 281 283 285 285 285 286 285 284 285 285 284 283 283 282 279 276 273 273 275 274 271 269 267 265 263 262 261 258 256 257 257 255 255 256 258 257 255 254 253 253 251 251 252
Height
5806 5806 5806 5807 5807 5807 5807 5807 5807 5808 5807 5808 5806 5806 5806 5805 5805 5805 5804 5804 5804 5805 5805 5805 5805 5805 5805 5805 5806 5807 5809 5810 5811 5812 5813 5813 5814 5815 5815 5816 5817 5817 5818 5818
5799 5799 5799 5800 5800 5800 5800 5800 5800 5800 5800 5800 5799 5798 5798 5798 5798 5798 5798 5798 5798 5798 5798 5798 5799 5799 5799 5799 5800 5801 5803 5804 5805 5806 5807 5809 5809 5810 5811 5812 5813 5814 5815 5815
5792 5792 5792 5793 5794 5793 5793 5792 5792 5792 5793 5792 5792 5791 5791 5791 5791 5790 5791 5790 5790 5791 5791 5791 5792 5792 5792 5793 5793 5794 5796 5798 5799 5800 5802 5803 5805 5806 5807 5808 5809 5810 5811 5812
5784 5785 5785 5789 5786 5786 5785 5785 5784 5784 5784 5784 5784 5784 5783 5783 5783 5783 5783 5783 5783 5783 5783 5784 5784 5784 5785 5786 5787 5788 5789 5791 5792 5794 5796 5798 5799 5801 5802 5804 5805 5806 5807 5808
5777 5776 5777 5779 5778 5778 5777 5777 5777 5776 5776 5776 5775 5776 5776 5775 5775 5775 5775 5775 5775 5775 5775 5776 5776 5776 5777 5778 5780 5781 5783 5784 5786 5788 5789 5791 5794 5795 5797 5799 5800 5801 5802 5803
5768 5768 5769 5771 5770 5769 5770 5769 5769 5768 5768 5767 5767 5767 5768 5767 5767 5767 5767 5767 5767 5767 5767 5767 5768 5768 5769 5771 5772 5774 5776 5778 5779 5781 5783 5785 5788 5790 5792 5793 5795 5796 5798 5799
5760 5760 5761 5762 5761 5762 5763 5762 5761 5760 5760 5759 5759 5759 5759 5759 5759 5759 5759 5759 5759 5759 5759 5759 5760 5760 5762 5763 5765 5767 5768 5770 5772 5774 5777 5779 5781 5784 5786 5788 5789 5791 5792 5794
5753 5753 5755 5753 5753 5753 5753 5752 5752 5752 5751 5751 5750 5750 5750 5750 5750 5750 5751 5751 5751 5751 5751 5751 5751 5752 5754 5756 5757 5759 5761 5763 5765 5767 5769 5772 5775 5777 5779 5781 5783 5785 5786 5788
5746 5747 5745 5744 5744 5744 5744 5743 5743 5743 5743 5742 5741 5741 5741 5742 5742 5742 5742 5742 5743 5742 5743 5743 5744 5744 5746 5748 5750 5752 5754 5756 5758 5760 5762 5765 5768 5770 5772 5775 5777 5779 5781 5782
5737 5737 5737 5737 5736 5736 5735 5734 5734 5734 5734 5733 5733 5733 5733 5733 5733 5733 5733 5733 5734 5734 5734 5735 5735 5737 5739 5741 5743 5744 5747 5748 5751 5753 5755 5757 5760 5763 5765 5768 5770 5772 5774 5776
5728 5729 5729 5729 5728 5727 5727 5726 5725 5725 5724 5724 5724 5724 5724 5724 5724 5724 5724 5725 5725 5725 5725 5726 5727 5729 5731 5733 5735 5737 5739 5741 5743 5745 5748 5750 5752 5756 5758 5761 5763 5765 5767 5769
5721 5722 5721 5721 5720 5719 5718 5717 5716 5716 5716 5715 5715 5715 5715 5715 5715 5715 5715 5716 5716 5716 5717 5718 5719 5721 5723 5725 5727 5729 5731 5733 5735 5738 5740 5742 5745 5748 5750 5753 5755 5758 5760 5762
5713 5713 5712 5712 5711 5710 5709 5708 5707 5707 5706 5706 5706 5706 5706 5706 5706 5706 5706 5707 5707 5708 5709 5710 5712 5714 5716 5717 5719 5721 5723 5725 5728 5730 5732 5735 5737 5740 5742 5745 5747 5750 5752 5754
5705 5705 5704 5704 5703 5702 5701 5700 5699 5698 5697 5697 5696 5696 5696 5696 5697 5697 5697 5698 5698 5699 5701 5702 5704 5706 5708 5709 5711 5713 5715 5717 5720 5722 5724 5726 5729 5731 5734 5736 5739 5741 5744 5746
5698 5697 5696 5696 5694 5693 5692 5691 5690 5689 5689 5688 5687 5687 5687 5687 5687 5688 5688 5688 5689 5690 5692 5694 5695 5698 5699 5701 5703 5705 5707 5709 5711 5713 5715 5718 5720 5723 5725 5728 5730 5732 5735 5737
5691 5689 5688 5687 5686 5685 5684 5683 5682 5681 5680 5679 5678 5678 5677 5678 5678 5678 5678 5679 5680 5681 5683 5684 5687 5689 5690 5692 5694 5696 5698 5701 5703 5705 5707 5709 5711 5713 5716 5718 5721 5723 5726 5728
5683 5682 5681 5680 5678 5677 5676 5674 5673 5672 5671 5670 5669 5668 5668 5668 5668 5669 5669 5670 5671 5671 5673 5675 5677 5679 5681 5683 5685 5687 5690 5692 5693 5695 5697 5699 5702 5704 5707 5709 5711 5714 5717 5719
5675 5674 5673 5672 5670 5669 5668 5666 5665 5663 5662 5661 5660 5659 5659 5658 5658 5658 5659 5660 5661 5662 5664 5665 5667 5670 5672 5674 5676 5678 5680 5682 5684 5686 5688 5690 5692 5694 5697 5699 5701 5704 5707 5709
5668 5667 5666 5664 5663 5661 5660 5658 5657 5655 5654 5652 5651 5650 5649 5649 5648 5649 5649 5650 5652 5653 5655 5656 5658 5660 5662 5664 5666 5668 5670 5673 5675 5677 5679 5680 5682 5685 5687 5689 5691 5694 5697 5699
5661 5659 5658 5657 5655 5653 5652 5650 5649 5647 5646 5644 5643 5642 5641 5640 5640 5640 5641 5642 5643 5644 5646 5647 5649 5650 5652 5654 5656 5658 5661 5663 5665 5667 5669 5671 5673 5675 5677 5678 5681 5683 5686 5689
5653 5652 5651 5649 5648 5646 5644 5642 5641 5639 5638 5637 5635 5634 5633 5633 5632 5632 5633 5634 5635 5635 5637 5638 5640 5641 5643 5645 5647 5649 5651 5653 5655 5656 5659 5661 5662 5664 5666 5668 5670 5672 5675 5678
5646 5645 5643 5641 5640 5638 5637 5635 5633 5632 5630 5629 5628 5627 5626 5625 5625 5625 5625 5625 5626 5627 5628 5629 5630 5632 5633 5634 5636 5638 5641 5643 5645 5646 5648 5650 5652 5653 5655 5657 5659 5661 5664 5666
5638 5637 5636 5634 5632 5631 5629 5628 5626 5624 5623 5622 5621 5620 5619 5618 5617 5616 5617 5617 5617 5618 5619 5620 5621 5622 5623 5624 5626 5628 5630 5632 5634 5636 5637 5639 5640 5642 5644 5646 5648 5650 5652 5655
5631 5630 5628 5627 5625 5624 5622 5621 5619 5618 5617 5615 5614 5613 5612 5611 5610 5609 5609 5609 5609 5609 5610 5611 5611 5612 5614 5615 5617 5618 5620 5622 5624 5625 5627 5628 5629 5631 5632 5634 5636 5639 5641 5643
5624 5623 5621 5620 5618 5617 5615 5614 5612 5611 5610 5609 5608 5606 5605 5603 5603 5602 5602 5601 5601 5601 5601 5602 5603 5604 5605 5606 5607 5609 5610 5612 5613 5615 5616 5618 5619 5620 5622 5623 5625 5627 5629 5631
5616 5615 5614 5613 5611 5610 5608 5607 5605 5604 5603 5602 5601 5599 5598 5597 5596 5595 5595 5594 5593 5593 5593 5594 5594 5595 5596 5597 5598 5600 5601 5602 5603 5605 5606 5607 5609 5610 5611 5613 5614 5616 5618 5620
5609 5608 5607 5606 5604 5602 5601 5599 5598 5597 5595 5594 5593 5592 5591 5590 5589 5588 5587 5587 5586 5586 5586 5586 5586 5587 5588 5589 5590 5591 5592 5593 5594 5595 5597 5598 5599 5600 5601 5602 5604 5605 5607 5609